LVYJP SAZY-SAZS

Flight info

Callsign LVYJP
Flight time 0h 44m
Altitude 11000
Route ALGIL1M ALGIL ALGIL1Q
Aircraft C208/L-SDFGR/C

Departure

Time 2026-05-09 19:40
Airport Aviador C. Campos Airport (SAZY)

Arrival

Time 2026-05-09 20:24
Airport Teniente Luis Candelaria International Airport (SAZS)
Time Latitude Longitude Altitude Speed Heading
2026-05-09 19:13 -40.08094 -71.14267 2597 ft 0 kts 114°
2026-05-09 19:20 -40.08093 -71.14267 2597 ft 0 kts 114°
2026-05-09 19:23 -40.08093 -71.14268 2624 ft 0 kts 114°
2026-05-09 19:29 -40.08093 -71.14260 2597 ft 0 kts 78°
2026-05-09 19:30 -40.08062 -71.14230 2597 ft 12 kts 33°
2026-05-09 19:30 -40.07958 -71.14143 2597 ft 23 kts 36°
2026-05-09 19:30 -40.07793 -71.14002 2597 ft 33 kts 34°
2026-05-09 19:30 -40.07629 -71.13855 2597 ft 18 kts 32°
2026-05-09 19:31 -40.07616 -71.13848 2597 ft 15 kts 12°
2026-05-09 19:33 -40.07587 -71.13846 2598 ft 8 kts 341°
2026-05-09 19:33 -40.07578 -71.13872 2598 ft 5 kts 254°
2026-05-09 19:33 -40.07603 -71.13970 2598 ft 18 kts 249°
2026-05-09 19:33 -40.07653 -71.14164 2599 ft 27 kts 248°
2026-05-09 19:34 -40.07738 -71.14420 2599 ft 34 kts 246°
2026-05-09 19:34 -40.07809 -71.14648 2595 ft 20 kts 247°
2026-05-09 19:34 -40.07850 -71.14777 2596 ft 10 kts 247°
2026-05-09 19:34 -40.07876 -71.14874 2595 ft 15 kts 248°
2026-05-09 19:35 -40.07905 -71.15028 2593 ft 19 kts 248°
2026-05-09 19:35 -40.07929 -71.15035 2593 ft 4 kts 80°
2026-05-09 19:35 -40.07918 -71.15010 2583 ft 0 kts 64°
2026-05-09 19:39 -40.07891 -71.14930 2595 ft 31 kts 68°
2026-05-09 19:40 -40.07746 -71.14455 2599 ft 80 kts 68°
2026-05-09 19:40 -40.07503 -71.13695 2710 ft 100 kts 64°
2026-05-09 19:40 -40.07220 -71.12767 2887 ft 116 kts 70°
2026-05-09 19:40 -40.06912 -71.11784 3219 ft 111 kts 65°
2026-05-09 19:41 -40.06587 -71.10894 3584 ft 110 kts 66°
2026-05-09 19:41 -40.06341 -71.09966 4000 ft 109 kts 78°
2026-05-09 19:41 -40.06146 -71.08972 4328 ft 112 kts 66°
2026-05-09 19:41 -40.05815 -71.08052 4639 ft 111 kts 53°
2026-05-09 19:42 -40.05497 -71.07540 4817 ft 110 kts 45°
2026-05-09 19:42 -40.04926 -71.06421 5102 ft 117 kts 68°
2026-05-09 19:42 -40.04697 -71.05437 5293 ft 121 kts 78°
2026-05-09 19:42 -40.04580 -71.04324 5440 ft 124 kts 94°
2026-05-09 19:43 -40.04489 -71.03212 5608 ft 126 kts 81°
2026-05-09 19:43 -40.04250 -71.02092 5770 ft 129 kts 70°
2026-05-09 19:43 -40.03967 -71.01415 5900 ft 130 kts 53°
2026-05-09 19:43 -40.03486 -71.00031 6123 ft 127 kts 95°
2026-05-09 19:44 -40.03664 -70.99320 6231 ft 125 kts 126°
2026-05-09 19:44 -40.04357 -70.98718 6389 ft 120 kts 169°
2026-05-09 19:44 -40.05160 -70.98497 6585 ft 117 kts 161°
2026-05-09 19:44 -40.05832 -70.97910 6757 ft 117 kts 139°
2026-05-09 19:45 -40.06412 -70.97181 6928 ft 115 kts 140°
2026-05-09 19:45 -40.07165 -70.96199 7152 ft 116 kts 138°
2026-05-09 19:45 -40.07550 -70.95687 7255 ft 116 kts 139°
2026-05-09 19:45 -40.08101 -70.94944 7437 ft 115 kts 138°
2026-05-09 19:46 -40.08652 -70.94200 7602 ft 113 kts 139°
2026-05-09 19:46 -40.09189 -70.93472 7775 ft 111 kts 139°
2026-05-09 19:46 -40.09732 -70.92738 7948 ft 112 kts 139°
2026-05-09 19:46 -40.10273 -70.92004 8125 ft 112 kts 139°
2026-05-09 19:47 -40.10813 -70.91271 8294 ft 112 kts 140°
2026-05-09 19:47 -40.11351 -70.90537 8472 ft 111 kts 140°
2026-05-09 19:47 -40.11886 -70.89809 8647 ft 110 kts 140°
2026-05-09 19:47 -40.12433 -70.89123 8694 ft 110 kts 153°
2026-05-09 19:48 -40.13166 -70.88999 8821 ft 109 kts 201°
2026-05-09 19:48 -40.13850 -70.89415 8997 ft 112 kts 209°
2026-05-09 19:48 -40.14568 -70.89829 9174 ft 113 kts 209°
2026-05-09 19:48 -40.15292 -70.90251 9349 ft 114 kts 209°
2026-05-09 19:49 -40.16020 -70.90674 9528 ft 115 kts 209°
2026-05-09 19:49 -40.16753 -70.91100 9704 ft 116 kts 208°
2026-05-09 19:49 -40.17495 -70.91529 9881 ft 117 kts 208°
2026-05-09 19:49 -40.18239 -70.91960 10061 ft 117 kts 209°
2026-05-09 19:50 -40.18981 -70.92390 10230 ft 116 kts 209°
2026-05-09 19:50 -40.19721 -70.92819 10404 ft 116 kts 209°
2026-05-09 19:50 -40.20462 -70.93248 10582 ft 117 kts 209°
2026-05-09 19:50 -40.21207 -70.93679 10750 ft 117 kts 209°
2026-05-09 19:51 -40.21954 -70.94113 10921 ft 117 kts 209°
2026-05-09 19:51 -40.22332 -70.94332 11012 ft 117 kts 209°
2026-05-09 19:52 -40.22810 -70.94609 11041 ft 125 kts 209°
2026-05-09 19:52 -40.23639 -70.95096 11058 ft 136 kts 208°
2026-05-09 19:52 -40.24531 -70.95613 11055 ft 143 kts 208°
2026-05-09 19:52 -40.25452 -70.96148 11050 ft 147 kts 208°
2026-05-09 19:53 -40.26391 -70.96691 11049 ft 148 kts 208°
2026-05-09 19:53 -40.27338 -70.97239 11054 ft 149 kts 208°
2026-05-09 19:53 -40.28292 -70.97792 11053 ft 150 kts 208°
2026-05-09 19:53 -40.29249 -70.98348 11056 ft 151 kts 208°
2026-05-09 19:54 -40.30207 -70.98904 11053 ft 151 kts 208°
2026-05-09 19:54 -40.31166 -70.99462 11056 ft 151 kts 208°
2026-05-09 19:54 -40.32123 -71.00018 11050 ft 150 kts 208°
2026-05-09 19:54 -40.33067 -71.00568 11057 ft 151 kts 208°
2026-05-09 19:55 -40.34030 -71.01128 11049 ft 152 kts 208°
2026-05-09 19:55 -40.34997 -71.01689 11047 ft 152 kts 208°
2026-05-09 19:55 -40.35960 -71.02249 11046 ft 150 kts 208°
2026-05-09 19:56 -40.37871 -71.03365 11048 ft 151 kts 208°
2026-05-09 19:56 -40.38829 -71.03922 11045 ft 151 kts 208°
2026-05-09 19:56 -40.39781 -71.04475 11042 ft 148 kts 208°
2026-05-09 19:56 -40.40722 -71.05026 11044 ft 149 kts 208°
2026-05-09 19:57 -40.41671 -71.05581 11043 ft 150 kts 208°
2026-05-09 19:57 -40.42619 -71.06133 11044 ft 150 kts 208°
2026-05-09 19:57 -40.43572 -71.06690 11039 ft 149 kts 208°
2026-05-09 19:57 -40.44505 -71.07230 11036 ft 145 kts 208°
2026-05-09 19:58 -40.45425 -71.07772 11042 ft 146 kts 208°
2026-05-09 19:58 -40.46366 -71.08322 11046 ft 149 kts 208°
2026-05-09 19:58 -40.47325 -71.08883 11048 ft 151 kts 208°
2026-05-09 19:58 -40.48291 -71.09448 11058 ft 153 kts 207°
2026-05-09 19:59 -40.49275 -71.10020 11045 ft 155 kts 207°
2026-05-09 19:59 -40.50253 -71.10592 11048 ft 154 kts 208°
2026-05-09 19:59 -40.51223 -71.11160 11050 ft 155 kts 208°
2026-05-09 19:59 -40.52208 -71.11735 11050 ft 154 kts 207°
2026-05-09 20:00 -40.53196 -71.12311 11047 ft 156 kts 207°
2026-05-09 20:00 -40.54195 -71.12896 11063 ft 157 kts 207°
2026-05-09 20:00 -40.55209 -71.13489 11047 ft 162 kts 206°
2026-05-09 20:00 -40.56337 -71.13673 11048 ft 169 kts 173°
2026-05-09 20:01 -40.57441 -71.13093 11046 ft 173 kts 155°
2026-05-09 20:01 -40.58529 -71.12418 11060 ft 173 kts 159°
2026-05-09 20:01 -40.59640 -71.11817 11054 ft 172 kts 161°
2026-05-09 20:01 -40.60755 -71.11238 11047 ft 172 kts 161°
2026-05-09 20:02 -40.61861 -71.10660 11045 ft 170 kts 161°
2026-05-09 20:02 -40.62944 -71.10088 11044 ft 169 kts 161°
2026-05-09 20:02 -40.64042 -71.09511 11051 ft 171 kts 160°
2026-05-09 20:03 -40.66253 -71.08346 11043 ft 170 kts 161°
2026-05-09 20:03 -40.67352 -71.07769 11043 ft 170 kts 161°
2026-05-09 20:03 -40.68452 -71.07187 11042 ft 170 kts 160°
2026-05-09 20:03 -40.69551 -71.06606 11039 ft 170 kts 160°
2026-05-09 20:04 -40.70645 -71.06027 11039 ft 170 kts 161°
2026-05-09 20:04 -40.71740 -71.05453 11040 ft 170 kts 161°
2026-05-09 20:04 -40.72839 -71.04874 11039 ft 170 kts 161°
2026-05-09 20:04 -40.73942 -71.04288 11046 ft 172 kts 161°
2026-05-09 20:05 -40.75053 -71.03699 11041 ft 172 kts 161°
2026-05-09 20:05 -40.76146 -71.03126 11044 ft 171 kts 161°
2026-05-09 20:05 -40.77255 -71.02537 11039 ft 172 kts 161°
2026-05-09 20:05 -40.78357 -71.01955 11039 ft 170 kts 161°
2026-05-09 20:06 -40.79457 -71.01375 11037 ft 170 kts 161°
2026-05-09 20:06 -40.80552 -71.00793 11037 ft 169 kts 161°
2026-05-09 20:06 -40.81647 -71.00214 11043 ft 170 kts 161°
2026-05-09 20:06 -40.82753 -70.99630 11043 ft 171 kts 161°
2026-05-09 20:07 -40.83856 -70.99044 11036 ft 170 kts 161°
2026-05-09 20:07 -40.84946 -70.98466 11042 ft 168 kts 161°
2026-05-09 20:07 -40.86041 -70.97886 11040 ft 170 kts 160°
2026-05-09 20:07 -40.87122 -70.97314 11038 ft 169 kts 161°
2026-05-09 20:08 -40.88215 -70.96735 11040 ft 169 kts 161°
2026-05-09 20:08 -40.90413 -70.95565 11044 ft 172 kts 160°
2026-05-09 20:08 -40.91544 -70.94961 10868 ft 179 kts 160°
2026-05-09 20:09 -40.92722 -70.94334 10654 ft 185 kts 160°
2026-05-09 20:09 -40.93929 -70.93689 10428 ft 187 kts 160°
2026-05-09 20:09 -40.95140 -70.93043 10204 ft 188 kts 160°
2026-05-09 20:09 -40.96353 -70.92397 9982 ft 188 kts 160°
2026-05-09 20:10 -40.97562 -70.91753 9758 ft 187 kts 160°
2026-05-09 20:10 -40.98752 -70.91118 9535 ft 186 kts 160°
2026-05-09 20:10 -40.99957 -70.90473 9311 ft 187 kts 160°
2026-05-09 20:10 -41.01160 -70.89835 9088 ft 186 kts 160°
2026-05-09 20:11 -41.02361 -70.89196 8857 ft 182 kts 160°
2026-05-09 20:11 -41.03465 -70.88618 8621 ft 162 kts 161°
2026-05-09 20:11 -41.04483 -70.88083 8384 ft 153 kts 161°
2026-05-09 20:11 -41.05462 -70.87562 8150 ft 150 kts 161°
2026-05-09 20:12 -41.06423 -70.87047 7924 ft 148 kts 161°
2026-05-09 20:12 -41.07375 -70.86542 7696 ft 147 kts 161°
2026-05-09 20:12 -41.08322 -70.86035 7464 ft 146 kts 161°
2026-05-09 20:12 -41.09267 -70.85529 7243 ft 147 kts 160°
2026-05-09 20:13 -41.10197 -70.85031 7017 ft 145 kts 161°
2026-05-09 20:13 -41.11129 -70.84536 6790 ft 144 kts 160°
2026-05-09 20:13 -41.12054 -70.84040 6566 ft 144 kts 160°
2026-05-09 20:13 -41.12986 -70.83542 6343 ft 145 kts 160°
2026-05-09 20:14 -41.13919 -70.83043 6119 ft 145 kts 160°
2026-05-09 20:14 -41.14853 -70.82543 5896 ft 145 kts 159°
2026-05-09 20:14 -41.15785 -70.82041 5666 ft 144 kts 159°
2026-05-09 20:14 -41.16699 -70.81552 5548 ft 137 kts 159°
2026-05-09 20:15 -41.17560 -70.81125 5537 ft 128 kts 167°
2026-05-09 20:15 -41.18401 -70.81256 5533 ft 121 kts 210°
2026-05-09 20:15 -41.18910 -70.82110 5532 ft 121 kts 250°
2026-05-09 20:15 -41.18910 -70.83213 5535 ft 121 kts 279°
2026-05-09 20:16 -41.18767 -70.84313 5542 ft 121 kts 277°
2026-05-09 20:16 -41.18640 -70.85412 5541 ft 120 kts 277°
2026-05-09 20:16 -41.18510 -70.86506 5544 ft 120 kts 277°
2026-05-09 20:16 -41.18387 -70.87584 5541 ft 120 kts 276°
2026-05-09 20:17 -41.18265 -70.88677 5536 ft 120 kts 276°
2026-05-09 20:17 -41.18302 -70.89790 5449 ft 125 kts 255°
2026-05-09 20:17 -41.18671 -70.90861 5221 ft 130 kts 239°
2026-05-09 20:17 -41.19147 -70.91851 5002 ft 123 kts 237°
2026-05-09 20:18 -41.19527 -70.92839 4815 ft 120 kts 246°
2026-05-09 20:18 -41.19773 -70.93890 4594 ft 119 kts 258°
2026-05-09 20:18 -41.19772 -70.94997 4429 ft 115 kts 277°
2026-05-09 20:18 -41.19704 -70.96027 4349 ft 108 kts 270°
2026-05-09 20:19 -41.19717 -70.97004 4294 ft 105 kts 267°
2026-05-09 20:19 -41.19743 -70.97957 4297 ft 99 kts 267°
2026-05-09 20:19 -41.19654 -70.98846 4233 ft 99 kts 284°
2026-05-09 20:19 -41.19496 -70.99736 4155 ft 98 kts 277°
2026-05-09 20:20 -41.19347 -71.00612 4089 ft 98 kts 283°
2026-05-09 20:20 -41.19179 -71.01487 4006 ft 99 kts 283°
2026-05-09 20:20 -41.18974 -71.02396 3862 ft 104 kts 286°
2026-05-09 20:20 -41.18757 -71.03264 3843 ft 97 kts 285°
2026-05-09 20:21 -41.18581 -71.04125 3780 ft 98 kts 281°
2026-05-09 20:21 -41.18398 -71.04984 3729 ft 98 kts 283°
2026-05-09 20:21 -41.18272 -71.05902 3604 ft 101 kts 276°
2026-05-09 20:21 -41.18112 -71.06793 3523 ft 100 kts 285°
2026-05-09 20:22 -41.17854 -71.07641 3443 ft 99 kts 291°
2026-05-09 20:22 -41.17599 -71.08449 3414 ft 96 kts 295°
2026-05-09 20:22 -41.17316 -71.09270 3327 ft 98 kts 291°
2026-05-09 20:22 -41.17042 -71.10135 3166 ft 103 kts 292°
2026-05-09 20:23 -41.16761 -71.11010 3064 ft 101 kts 291°
2026-05-09 20:23 -41.16485 -71.11803 3093 ft 91 kts 293°
2026-05-09 20:23 -41.16242 -71.12490 3082 ft 83 kts 292°
2026-05-09 20:23 -41.15998 -71.13209 2967 ft 88 kts 290°
2026-05-09 20:24 -41.15743 -71.13954 2867 ft 88 kts 290°
2026-05-09 20:24 -41.15506 -71.14638 2756 ft 73 kts 291°
2026-05-09 20:24 -41.15321 -71.15191 2750 ft 60 kts 296°
2026-05-09 20:24 -41.15175 -71.15563 2748 ft 21 kts 321°
2026-05-09 20:25 -41.15019 -71.15603 2748 ft 25 kts 324°
2026-05-09 20:25 -41.14966 -71.15723 2748 ft 1 kts 296°
2026-05-09 20:25 -41.14942 -71.15794 2748 ft 15 kts 292°
2026-05-09 20:25 -41.14884 -71.15957 2748 ft 24 kts 292°
2026-05-09 20:26 -41.14808 -71.16170 2748 ft 26 kts 293°
2026-05-09 20:26 -41.14736 -71.16332 2748 ft 3 kts 294°
2026-05-09 20:26 -41.14733 -71.16340 2748 ft 0 kts 294°
2026-05-09 21:23 -41.14727 -71.16337 2748 ft 0 kts 294°
2026-05-09 21:23 -41.14733 -71.16340 2748 ft 0 kts 294°